Location: Unspecified
(0.0000°N, 0.0000°E)
Time: 05:03:45
(UTC+01:00)

Milstar 3 - Visible Passes

Search period start: 05 March 2015 00:00
Search period end: 15 March 2015 00:00
Orbit: 1102 x 5144 km, 28.2° (Epoch: 11 February)

Date Brightness Start Highest point End Pass type
(mag) Time Alt. Az. Time Alt. Az. Time Alt. Az.
05 Mar 6.5 02:02:11 25° NNE 02:02:11 25° NNE 02:13:53 10° NE visible
05 Mar 6.3 04:35:43 24° NNW 04:49:44 34° N 05:18:06 10° ENE visible
05 Mar 3.7 21:48:20 10° SW 21:54:38 65° SSW 21:54:38 65° SSW visible
06 Mar 6.8 01:03:59 13° NE 01:03:59 13° NE 01:05:55 10° NE visible
06 Mar 6.2 03:37:31 32° N 03:41:09 32° N 04:08:39 10° ENE visible
06 Mar 6.7 06:15:15 10° NW 06:44:30 45° NNE 07:10:55 10° E visible
06 Mar 3.6 20:47:30 10° SW 20:54:26 51° SSE 20:56:53 42° ESE visible
06 Mar 5.8 23:30:19 10° W 00:05:48 - NE 23:30:29 11° W visible
07 Mar 6.3 02:39:20 30° NNE 02:39:20 30° NNE 02:58:44 10° NE visible
07 Mar 6.5 05:12:52 15° NW 05:35:41 39° NNE 06:04:09 10° E visible
07 Mar 4.0 19:46:57 10° SSW 19:52:47 30° SSE 19:59:11 14° E visible
07 Mar 4.5 22:28:41 10° WSW 22:32:46 37° W 22:32:46 37° W visible
08 Mar 6.6 01:41:09 20° NE 01:41:09 20° NE 01:49:29 10° NE visible
08 Mar 6.2 04:14:41 26° NNW 04:26:53 34° N 04:55:30 10° ENE visible
08 Mar 3.3 21:27:25 10° WSW 21:34:51 89° SE 21:35:05 86° ENE visible
09 Mar 6.2 03:16:32 31° N 03:18:43 31° N 03:45:19 10° ENE visible
09 Mar 6.6 05:52:23 10° NW 06:21:00 48° NNE 06:49:00 10° E visible
09 Mar 3.3 20:26:26 10° SW 20:33:09 58° SSE 20:37:25 32° E visible
09 Mar 5.5 23:09:44 10° W 23:11:01 16° W 23:11:01 16° W visible
10 Mar 6.4 02:18:23 26° NNE 02:18:23 26° NNE 02:34:45 10° NE visible
10 Mar 6.4 04:51:56 18° NW 05:12:26 40° NNE 05:41:53 10° E visible
10 Mar 3.7 19:25:38 10° SW 19:31:37 34° SSE 19:39:06 10° E visible
10 Mar 4.1 22:07:59 10° WSW 22:13:23 46° WNW 22:13:23 46° WNW visible
11 Mar 6.7 01:20:15 16° NE 01:20:15 16° NE 01:25:10 10° NE visible
11 Mar 6.2 03:53:48 27° NNW 04:04:04 34° NNE 04:32:44 10° ENE visible
11 Mar 6.5 06:34:19 10° NW 07:05:27 61° NNE 07:32:24 10° ESE visible
11 Mar 3.2 21:06:33 10° WSW 21:13:36 79° NNW 21:15:46 57° NE visible
12 Mar6.200:22:09NE00:22:09NE23:49:22Wvisible
12 Mar 6.2 02:55:42 30° N 02:56:25 30° N 03:21:55 10° ENE visible
12 Mar 6.5 05:29:41 10° NW 05:57:21 50° NNE 06:26:50 10° E visible
12 Mar 3.0 20:05:21 10° SW 20:11:58 68° SSE 20:18:10 21° ENE visible
12 Mar 5.2 22:49:16 10° W 22:51:47 21° WNW 22:51:47 21° WNW visible
13 Mar 6.4 01:57:38 23° NNE 01:57:38 23° NNE 02:10:47 10° NE visible
13 Mar 6.3 04:31:12 21° NNW 04:49:09 42° NNE 05:19:23 10° E visible
13 Mar 4.0 21:47:20 10° W 21:54:12 46° NNW 21:54:12 46° NNW visible
14 Mar 6.8 00:59:36 12° NE 00:59:36 12° NE 01:01:00 10° NE visible
14 Mar 6.1 03:33:10 29° NNW 03:41:19 34° NNE 04:09:47 10° ENE visible
14 Mar 6.4 06:11:16 10° NW 06:41:29 64° NNE 07:10:14 10° ESE visible
14 Mar 3.3 20:45:42 10° WSW 20:52:27 66° NNW 20:56:38 34° NE visible
